Theta_e
309 312 313 313 312 311 310 311 312 312 313 314 314 314 314 316 317 316 315 314 317 318 317 317 316 318 317 320 325 319 321 319 315 319 320 317 318 319 316 315 315 318 319 317 315 316 318 311 312 316 315 314 313 313
306 309 313 313 312 311 310 311 311 312 313 314 314 314 315 314 316 316 319 315 314 319 318 315 317 315 317 316 319 318 320 319 321 320 314 313 318 311 320 320 313 316 315 316 315 317 314 313 312 312 314 314 311 305
304 305 307 312 312 312 311 310 311 312 313 314 314 314 315 315 315 315 315 315 314 315 316 318 319 315 316 316 315 321 317 316 317 315 317 313 315 316 316 317 317 315 313 316 315 314 314 314 314 310 309 305 303 301
304 304 305 308 311 311 311 310 311 312 313 313 314 314 314 315 315 315 315 314 313 309 310 317 310 312 312 315 317 316 315 311 312 313 307 311 319 316 319 317 316 315 314 315 315 314 314 313 311 305 301 300 299 298
303 303 304 306 308 311 311 311 311 312 313 313 314 314 314 315 315 315 315 314 314 318 317 316 312 309 309 313 316 315 315 316 312 311 313 318 317 314 312 311 313 314 315 316 316 314 313 309 302 300 299 298 297 297
302 301 303 305 306 307 311 311 311 311 313 314 314 314 314 315 315 315 318 314 314 313 314 317 311 309 308 311 314 315 315 316 314 316 311 315 313 316 310 314 313 313 313 314 313 310 306 301 299 297 297 297 297 297
301 300 301 304 305 306 308 311 312 311 312 313 314 314 314 314 314 315 315 312 314 313 309 312 311 307 304 308 308 311 310 314 316 314 310 314 313 313 307 312 311 306 304 304 307 304 302 301 299 298 297 297 296 295
301 301 301 302 304 304 305 309 312 312 312 313 313 314 314 314 314 313 311 312 314 311 308 309 310 310 305 308 308 304 308 306 307 311 303 309 308 307 311 309 304 302 299 299 300 303 302 298 298 298 296 295 295 295
300 301 301 301 302 303 303 306 309 312 313 313 313 313 311 310 308 309 311 313 313 310 309 307 314 314 305 305 304 305 305 310 304 306 305 306 307 312 308 303 301 300 302 301 299 299 297 296 295 295 294 294 294 294
300 299 300 301 301 302 302 303 306 310 312 312 310 308 300 303 306 308 308 303 300 297 297 304 304 310 309 305 307 309 305 309 310 306 303 305 307 299 300 300 301 299 299 299 299 295 294 295 294 294 294 293 293 293
299 299 299 300 301 302 301 303 305 305 306 306 299 297 300 302 302 299 302 304 301 303 299 300 301 305 302 308 306 302 305 305 309 307 308 308 308 302 300 298 297 296 296 295 295 294 294 294 294 294 294 293 292 292
299 299 299 300 301 302 301 303 302 302 301 301 300 300 300 299 298 302 303 300 303 307 300 302 301 301 298 300 303 300 306 304 308 302 304 307 305 301 298 296 296 296 294 294 293 293 293 293 293 293 292 292 292 291
298 300 300 300 301 302 300 302 301 300 301 299 295 295 297 297 305 307 307 306 305 302 302 301 301 299 298 300 301 304 307 307 299 302 305 304 301 299 298 296 296 294 293 292 292 292 293 293 292 291 291 290 289 290
298 300 299 300 301 301 302 302 301 301 300 296 298 302 303 304 304 304 304 304 300 301 301 301 300 302 299 302 302 305 300 300 303 303 304 301 301 300 298 296 295 295 292 291 291 292 292 291 290 290 289 289 288 288
298 299 299 300 300 301 299 298 297 293 294 297 300 302 301 296 298 298 298 300 298 299 301 300 300 301 300 300 300 300 301 302 303 303 302 301 300 298 296 295 295 295 292 291 292 292 291 290 290 290 290 290 289 288
297 299 299 299 299 300 299 298 298 295 290 295 295 297 295 299 299 299 299 298 296 295 295 298 299 302 300 300 300 302 301 302 301 300 301 299 296 295 294 293 292 291 291 291 292 292 291 290 290 290 289 289 288 288
297 299 299 298 297 298 297 296 294 292 294 296 295 294 295 298 300 298 299 299 294 298 301 297 299 300 295 299 300 298 300 299 299 299 296 295 295 294 293 292 291 291 291 291 292 292 291 291 289 288 290 291 289 288
298 299 299 299 299 298 296 293 293 295 294 293 296 295 293 294 295 295 294 295 297 296 295 296 293 295 297 298 298 297 296 296 295 294 294 294 293 293 292 292 291 291 292 291 291 291 290 289 290 292 291 291 289 289
296 298 298 298 298 296 294 294 292 294 292 292 291 291 292 292 289 290 292 292 293 293 294 294 296 296 295 294 297 297 295 295 296 294 294 293 292 292 291 291 290 291 291 291 291 292 292 291 290 290 290 290 288 287
297 297 297 297 296 293 293 293 290 293 294 293 291 293 292 292 289 291 292 294 295 297 297 297 297 296 296 295 293 295 294 293 293 294 294 293 291 291 291 291 292 292 291 291 291 291 290 291 291 290 289 288 287 288
296 292 294 294 291 290 291 291 292 292 292 293 290 292 291 290 291 292 293 292 295 296 295 296 297 296 293 292 291 292 292 292 293 293 293 293 292 291 291 291 291 291 291 292 292 291 290 290 290 288 287 287 287 287
292 293 292 291 290 289 290 287 291 289 292 291 292 291 293 294 292 291 290 293 294 294 294 295 294 294 294 293 293 292 292 292 291 291 290 290 291 292 292 292 292 292 292 291 291 290 290 289 288 286 285 285 285 286
293 292 289 287 290 291 290 287 291 290 293 292 290 293 293 292 289 287 290 291 292 292 292 292 292 292 292 292 291 291 291 290 291 291 291 291 291 291 291 291 291 291 291 290 290 289 289 288 286 285 285 285 285 285
291 287 288 288 290 289 287 290 289 290 290 291 292 291 290 290 287 288 290 291 292 290 291 291 291 292 291 290 291 291 291 290 291 291 291 291 292 292 292 291 291 290 289 289 289 288 287 286 286 285 285 285 286 286
292 288 288 288 287 287 289 290 289 290 290 288 290 291 289 286 290 290 291 292 292 293 293 290 290 291 292 293 292 291 290 289 290 292 292 291 290 290 291 291 290 289 288 288 288 287 286 285 285 285 285 285 285 284
289 287 289 288 288 289 288 289 289 288 288 288 289 285 285 290 291 292 291 293 293 292 292 293 293 292 291 290 291 291 292 289 289 290 291 290 290 290 291 291 290 288 287 286 285 285 285 284 284 284 284 283 283 282
288 288 287 285 287 285 286 284 284 287 287 289 290 287 289 291 292 291 289 285 288 285 285 286 286 287 288 288 288 288 288 288 288 289 289 287 288 288 287 288 287 286 284 284 283 284 284 283 283 283 283 283 282 282
287 288 288 287 287 286 287 287 288 288 290 288 288 289 291 291 291 287 283 278 279 281 282 282 283 281 282 284 283 284 284 284 285 286 286 285 285 283 283 282 282 283 283 283 282 282 282 282 282 282 282 282 281 280
289 286 287 286 286 287 288 290 290 289 288 288 291 291 290 284 276 276 276 275 276 277 277 277 277 277 278 278 279 280 278 278 280 284 286 287 288 281 279 279 279 280 280 280 280 280 280 280 280 279 279 278 277 276
288 287 287 287 287 289 291 289 291 287 286 288 288 288 285 276 273 273 273 273 273 273 273 273 273 274 275 275 276 277 276 275 275 276 279 280 277 275 275 275 276 277 278 277 279 279 278 278 278 277 275 274 274 273
285 287 288 288 289 289 286 279 280 280 283 286 283 287 286 276 273 271 271 271 271 271 271 272 272 273 273 274 274 274 275 273 272 272 272 273 273 273 273 274 274 275 274 275 275 276 275 275 275 274 273 271 270 270
285 287 287 287 288 283 280 282 284 284 284 283 284 281 279 278 275 272 269 270 270 270 269 270 270 271 271 271 271 270 270 270 269 269 270 270 271 271 272 272 273 273 273 273 273 272 272 272 271 271 270 269 267 266
279 280 280 282 285 285 282 280 283 283 283 282 280 278 275 276 273 271 269 268 268 268 268 268 268 268 270 270 269 269 269 268 269 269 269 269 269 270 270 271 271 271 271 271 270 270 269 268 268 267 266 265 264 263
Wind_Speed
9 23 23 22 19 17 16 15 14 13 11 9 6 4 5 5 4 4 7 6 2 3 4 1 2 4 4 4 5 6 5 2 2 2 3 3 2 3 3 1 3 4 6 4 2 4 6 1 4 3 10 14 15 14
14 9 21 22 22 18 17 16 14 13 13 11 8 5 4 4 5 5 4 8 10 6 3 2 2 2 2 2 4 6 0 4 5 4 3 3 3 1 2 3 4 5 6 3 6 7 9 10 13 12 11 11 5 4
10 8 6 23 23 21 18 17 16 14 12 11 9 6 5 4 4 3 8 6 5 3 3 3 2 0 2 1 2 3 1 3 4 3 4 2 3 5 4 5 8 7 8 4 7 10 14 12 16 8 6 6 4 4
11 9 7 5 20 23 21 18 17 16 14 12 11 8 5 4 5 5 5 6 6 6 4 2 2 2 1 3 2 1 8 8 7 2 2 3 2 5 3 4 6 8 8 11 14 15 15 6 5 7 6 4 2 3
9 9 9 5 3 19 23 23 20 17 16 14 12 10 8 5 5 6 7 5 5 0 3 1 1 2 4 1 4 5 11 6 3 2 2 3 2 3 1 1 4 11 17 6 5 8 4 5 9 7 6 2 2 6
7 8 8 8 1 6 23 24 24 21 18 16 14 12 10 8 7 3 1 4 4 5 3 2 2 1 4 2 6 6 7 3 2 3 3 2 1 3 3 3 6 7 9 9 5 7 8 10 7 5 2 3 6 11
7 7 7 7 6 2 11 28 28 26 22 19 17 15 13 11 10 2 1 2 9 5 3 1 1 2 2 2 2 2 1 1 2 2 2 2 3 4 2 4 3 1 3 5 6 9 6 2 3 4 4 9 12 16
6 7 8 6 6 9 4 19 32 30 27 23 19 16 14 14 10 3 3 11 11 6 3 3 1 1 1 2 2 2 2 0 1 1 1 2 1 2 3 3 2 6 7 7 7 6 7 7 4 5 9 12 13 13
4 5 7 8 6 6 8 6 25 31 29 26 22 19 12 6 6 6 11 15 9 2 3 2 5 4 4 2 2 1 0 1 1 1 2 2 2 5 2 4 3 8 4 8 7 4 2 2 6 8 11 12 14 15
2 4 6 7 5 4 6 7 14 30 31 30 21 6 1 5 14 18 4 1 3 2 2 2 1 3 3 3 2 3 0 1 2 1 2 2 2 1 4 7 7 9 8 6 3 1 4 7 9 11 11 14 16 18
2 4 5 6 7 1 7 6 7 17 29 8 4 2 8 15 3 4 1 2 2 1 1 2 2 3 2 2 2 1 2 2 2 2 2 2 3 5 10 9 7 6 5 3 3 5 8 9 10 11 13 16 17 18
2 4 3 3 6 4 10 15 10 10 8 9 19 13 5 3 3 3 3 2 3 4 3 3 2 2 1 0 2 2 2 2 2 1 2 3 2 11 11 8 7 6 3 2 5 8 10 12 12 13 15 16 18 21
1 3 2 1 3 6 10 7 16 31 20 8 7 3 2 1 3 6 7 2 3 4 4 3 3 2 1 2 3 2 4 2 1 2 3 0 7 10 9 7 6 4 1 5 10 11 13 13 14 14 15 19 19 20
3 3 2 3 1 9 9 13 20 9 4 2 2 4 0 3 2 2 3 3 2 3 5 4 3 2 1 2 1 2 2 2 3 4 4 3 10 10 7 4 4 5 4 7 11 13 11 14 16 19 18 20 20 20
7 4 4 5 4 11 16 12 9 3 3 3 1 3 2 2 2 3 3 2 2 4 4 4 3 1 2 2 1 2 4 4 4 2 2 6 9 7 4 4 6 6 7 9 12 12 14 17 15 17 18 17 17 21
12 7 8 9 10 15 11 7 5 3 4 2 3 3 2 2 2 1 2 3 1 2 2 2 2 3 2 2 3 5 3 5 1 2 4 7 5 4 3 5 9 11 12 13 13 13 14 15 14 17 20 20 18 16
17 4 14 14 12 9 6 6 4 3 3 3 2 2 2 2 3 2 1 3 6 2 2 2 4 2 3 3 3 4 3 0 3 4 3 4 5 5 7 10 12 12 12 13 14 14 15 15 14 14 16 19 16 17
4 13 20 15 12 6 5 7 3 3 4 2 1 3 1 2 3 3 2 3 1 2 2 1 3 3 3 3 2 3 4 2 3 3 3 4 8 10 11 14 15 14 14 14 14 15 14 13 12 15 17 20 20 18
12 18 19 15 8 6 3 4 5 3 3 2 2 2 2 2 3 3 3 3 4 3 4 1 1 2 2 3 3 3 3 3 4 4 5 10 11 13 14 14 14 15 15 15 15 14 13 14 15 17 19 18 17 18
20 24 20 17 9 4 2 2 3 2 2 2 2 3 2 2 2 2 2 2 3 2 2 3 4 3 3 3 4 3 2 4 3 7 8 7 10 10 11 13 14 15 15 15 13 12 12 14 14 16 16 16 16 18
21 14 15 14 4 7 4 1 3 2 2 2 2 1 2 2 2 1 2 1 1 2 3 5 5 5 5 4 4 5 7 9 7 7 8 7 9 10 13 15 15 13 12 12 12 13 10 13 17 15 16 18 19 21
9 13 7 5 4 3 3 4 2 2 1 2 2 0 2 2 2 2 2 3 3 4 4 3 5 5 5 6 9 10 12 11 11 13 14 14 7 9 10 11 10 11 12 12 14 13 13 14 14 16 17 19 21 22
13 8 5 4 4 3 2 2 1 2 2 3 2 2 2 2 1 0 2 3 4 5 8 8 8 8 9 9 8 11 11 11 12 13 12 11 11 11 12 12 11 11 12 14 13 13 13 14 14 13 16 18 18 20
10 6 3 2 3 3 0 2 2 2 2 2 2 2 2 1 1 1 2 3 4 3 4 7 6 4 6 6 5 7 7 8 10 9 9 9 10 12 12 13 12 12 13 13 10 12 13 13 11 14 16 17 17 17
5 3 1 4 2 3 3 3 2 2 2 2 2 2 2 2 2 3 3 3 2 3 3 3 3 4 3 4 6 9 9 9 9 7 9 9 10 13 14 13 11 11 8 9 11 10 10 13 13 13 15 15 16 17
5 3 2 3 3 2 4 4 4 4 3 3 3 2 1 2 2 4 2 2 2 4 5 6 5 3 4 7 7 13 11 5 6 8 14 11 10 10 10 9 10 10 7 7 5 9 13 12 12 12 12 12 13 15
4 2 2 2 3 4 3 2 2 2 4 4 4 4 3 3 4 1 2 7 4 11 14 12 11 10 10 14 15 13 14 17 17 18 16 14 13 11 10 11 9 7 6 8 7 9 10 11 11 12 11 10 11 12
3 3 5 4 2 1 3 3 5 5 4 3 4 5 4 5 0 3 4 11 14 15 13 12 11 13 15 15 16 16 16 16 19 18 15 12 10 6 3 3 4 6 6 7 7 7 8 8 9 9 10 11 12 10
2 3 4 4 2 2 3 3 3 3 3 4 4 3 2 3 4 7 8 14 12 13 15 17 18 19 16 15 13 13 13 14 17 13 12 6 4 4 8 7 6 5 5 6 7 6 7 7 7 8 8 8 7 5
2 2 2 2 3 3 1 4 0 1 3 1 1 1 3 4 8 9 11 14 16 15 14 12 14 15 16 17 17 15 11 14 15 13 8 7 9 11 11 10 10 9 9 8 7 7 7 6 6 4 5 5 5 5
1 1 1 2 2 1 2 3 2 1 1 2 1 3 2 4 5 11 16 12 12 13 15 15 15 15 16 16 17 15 12 14 17 14 13 10 10 11 12 13 12 12 10 8 7 6 5 4 4 4 5 6 7 7
1 1 1 2 2 1 3 2 2 2 1 1 2 2 3 3 3 3 11 13 12 14 15 15 15 14 13 11 10 10 10 12 14 17 16 15 14 14 14 14 12 10 8 7 5 4 4 4 5 5 4 5 6 7
1 0 1 2 2 1 1 2 1 2 1 1 2 2 3 2 3 2 4 10 9 12 14 15 15 13 9 9 9 12 13 12 15 16 17 16 14 14 13 12 10 9 7 5 4 4 4 5 5 5 5 6 6 6
Wind_Direction
146 181 186 190 189 192 192 186 182 179 174 167 152 120 98 98 105 123 86 69 71 86 133 177 148 144 140 175 150 139 146 136 96 109 166 199 214 203 226 255 206 211 170 198 185 262 275 110 196 314 309 299 301 315
59 141 194 193 191 191 194 189 187 183 178 172 162 143 107 94 116 120 97 89 83 77 92 136 83 62 27 119 132 175 25 153 162 116 190 132 189 185 218 250 190 266 214 261 218 248 289 288 278 299 322 320 342 104
56 65 100 197 195 193 193 195 193 188 184 181 172 158 137 106 105 123 123 116 76 94 95 168 158 163 144 101 144 145 208 138 167 28 139 156 199 171 189 228 263 256 238 242 285 265 285 313 313 38 25 82 73 119
60 59 53 113 197 198 195 194 197 193 190 186 182 172 157 127 111 131 127 109 92 89 113 142 39 107 277 224 209 116 131 110 104 127 123 149 197 203 220 277 250 258 275 272 278 286 288 282 40 106 95 89 202 243
55 55 45 51 158 210 209 201 198 197 193 193 190 183 175 149 118 109 114 102 102 7 159 167 239 41 14 358 189 162 152 134 139 123 147 204 200 170 181 360 258 254 262 253 255 340 325 54 89 102 103 217 317 334
50 37 38 30 307 217 212 210 201 198 197 196 196 192 187 171 153 134 158 215 150 108 107 133 35 46 23 101 166 162 176 139 140 165 196 233 203 194 185 221 280 292 298 319 320 26 84 114 102 174 188 312 320 305
43 26 28 40 36 279 222 214 211 201 203 200 195 195 192 182 177 203 214 149 160 111 85 52 280 80 62 107 75 124 139 184 210 170 209 206 195 194 176 237 169 63 58 49 97 115 113 167 182 193 269 299 313 315
39 28 23 29 31 27 336 217 209 204 201 200 198 198 200 195 199 188 127 141 151 100 75 134 239 235 199 116 116 8 128 304 212 196 69 187 116 161 252 184 130 126 105 91 88 79 119 164 208 293 320 321 317 317
33 28 18 20 28 21 8 272 209 199 198 196 196 198 181 182 162 166 167 169 183 140 170 145 168 214 150 93 105 117 186 197 58 231 214 145 172 212 169 146 146 181 192 142 117 113 118 309 317 324 324 320 316 317
11 358 354 356 357 17 12 330 215 200 195 187 166 159 168 171 136 128 115 52 34 333 49 180 87 141 206 167 116 141 47 171 229 178 275 207 241 96 171 140 131 120 134 159 199 303 341 330 326 320 314 314 317 316
346 345 337 350 352 84 25 352 186 184 162 166 108 94 131 129 88 44 154 156 153 278 197 118 183 130 342 151 132 304 153 170 239 133 260 214 228 178 152 141 130 138 150 123 7 334 321 314 312 311 314 315 311 312
324 333 343 17 12 109 67 82 117 115 102 116 106 102 91 65 52 132 175 183 189 180 158 145 152 112 123 71 120 168 153 166 229 85 235 239 120 151 160 160 173 176 147 349 327 311 307 304 302 309 306 308 310 306
229 300 329 176 12 152 119 105 95 114 105 62 56 82 122 148 187 181 168 169 157 170 159 155 101 74 134 56 79 164 185 177 127 203 233 246 150 164 170 174 171 162 273 307 307 306 302 302 305 303 301 303 304 305
227 275 245 217 178 164 153 159 129 137 77 78 101 105 195 146 82 84 68 106 96 108 113 100 84 70 41 71 71 174 74 210 223 229 223 159 173 176 183 166 209 231 301 298 302 302 293 297 295 301 300 308 306 300
222 240 200 182 159 153 106 118 101 66 78 72 358 86 73 100 80 91 83 106 58 122 120 102 87 91 83 110 71 123 178 232 232 236 133 162 165 164 176 223 245 265 284 293 301 295 283 290 291 295 303 303 296 294
207 196 198 176 161 154 123 97 93 69 60 81 82 100 114 104 90 81 96 103 86 100 67 45 111 147 129 143 183 209 214 228 155 168 153 147 164 181 213 265 273 285 290 289 287 284 288 287 285 295 298 300 304 304
195 196 184 172 155 132 137 190 154 69 86 49 68 35 50 42 125 113 101 122 144 138 129 155 175 138 121 184 218 201 225 312 168 152 144 178 202 230 278 287 281 278 281 284 288 292 291 293 290 288 294 314 314 312
206 174 169 169 160 115 31 35 75 69 77 80 117 123 55 18 108 109 98 123 124 110 165 130 127 188 202 206 206 207 218 199 180 169 179 216 245 260 278 287 287 285 286 287 282 291 290 284 289 300 307 308 308 311
213 170 162 162 140 89 44 33 13 84 68 84 95 107 75 84 45 59 96 104 73 102 116 128 195 216 219 217 227 191 193 205 211 247 270 264 263 266 273 277 279 283 285 285 287 285 290 294 292 299 303 306 306 309
183 166 160 142 118 92 89 56 20 87 129 119 120 114 85 85 105 99 109 147 142 155 186 210 221 208 211 209 211 214 181 207 254 274 275 268 259 265 265 273 279 287 288 284 277 279 290 298 302 305 299 299 296 301
150 129 129 121 66 66 74 58 74 52 114 98 101 114 90 109 103 127 132 116 168 221 235 231 233 240 229 239 236 246 253 258 260 260 278 286 288 268 279 280 279 275 270 269 271 284 280 292 304 304 301 299 295 292
115 128 100 84 77 63 82 32 66 95 80 90 123 76 127 152 145 151 142 197 231 234 219 234 244 252 249 248 257 250 258 262 263 266 268 270 267 264 261 267 271 271 275 268 274 275 282 300 303 305 305 307 305 300
113 87 67 48 88 46 80 330 104 32 125 124 162 139 138 141 93 254 223 241 262 246 243 254 264 265 264 275 270 265 260 254 260 260 264 264 266 266 265 266 265 266 278 281 272 268 282 292 296 297 301 300 300 301
90 61 68 73 69 113 114 83 79 92 110 137 153 165 152 117 144 199 249 247 247 250 230 240 238 257 254 238 249 267 268 244 257 261 253 251 263 272 273 277 286 280 278 286 274 282 291 287 295 303 302 298 303 307
86 35 77 79 78 110 111 125 121 124 134 163 171 181 154 173 203 217 241 262 245 261 279 260 235 237 265 286 287 280 278 233 228 243 270 258 273 282 286 290 289 295 288 270 280 288 298 301 301 303 308 315 320 323
78 21 38 128 125 150 154 137 167 164 154 169 200 84 207 203 235 240 218 329 341 9 13 359 345 323 305 298 302 312 314 289 257 262 283 280 267 266 279 290 290 294 281 261 275 297 305 304 302 311 315 319 324 327
109 128 107 39 103 122 115 93 121 173 169 185 169 166 176 209 231 235 58 29 359 355 344 345 345 330 321 319 318 313 301 297 286 279 287 283 277 265 262 271 281 293 271 273 288 297 298 301 304 308 309 315 322 326
94 140 151 147 99 16 137 164 178 191 182 162 154 187 202 210 152 40 24 351 345 341 341 349 354 348 337 331 327 325 323 314 303 293 285 273 262 248 260 276 284 289 280 281 293 297 296 293 297 304 309 314 320 329
90 126 122 122 134 202 229 198 208 210 163 175 191 205 208 70 36 2 350 352 356 4 5 356 349 347 343 342 344 345 351 351 337 312 293 289 241 77 356 349 342 326 307 307 310 314 309 302 300 308 315 319 327 347
114 206 103 132 176 222 250 190 253 84 202 244 306 153 133 97 51 37 27 20 19 13 0 354 350 354 349 347 344 351 17 25 22 360 343 4 357 343 349 348 345 340 337 329 322 321 322 322 327 343 2 17 22 27
83 146 107 164 256 299 18 345 291 245 252 254 25 258 24 122 122 43 32 24 18 17 18 13 14 16 15 16 8 356 354 3 6 4 1 349 346 347 346 344 342 340 335 331 329 332 337 356 26 43 47 48 39 36
75 160 196 221 249 65 352 343 332 285 301 269 123 117 133 117 95 63 13 12 12 13 9 5 359 353 1 6 6 5 353 348 351 352 350 347 343 340 340 341 343 340 335 336 342 357 19 48 58 60 56 47 38 32
102 303 338 276 266 238 76 334 24 309 204 51 66 62 56 60 99 64 17 20 18 9 358 346 336 326 324 324 343 353 351 346 348 347 345 341 337 336 337 340 341 339 340 347 6 28 44 59 67 63 57 52 44 37